Location: Cabeza Gorda
(40.0667°N, 4.9667°W)
Time: 20:11:06
(UTC+00:00)

RUBIN 8/PSLV - Pass Details

Date: 15 January 2026
Orbit: 593 x 628 km, 98.1° (Epoch: 10 February)

Event Time Altitude Azimuth Distance (km) Brightness Sun altitude
Rises 06:08:58 0° 9° (N) 2,839 7.9 -17.1°
Reaches altitude 10° 06:11:09 10° 6° (N) 1,933 7.0 -16.7°
Maximum altitude 06:15:17 63° 286° (WNW) 667 4.4 -16.0°
Drops below altitude 10° 06:19:25 10° 205° (SSW) 1,927 7.0 -15.2°
Sets 06:21:35 0° 202° (SSW) 2,829 7.9 -14.8°
